User: anonymous   Login
Location: Newsoms
(36.6240°N, 77.1250°W)
Time: 15:24:40
(UTC-04:00)
Language:

BREEZE-M DEB (TANK) - Orbit

View from above orbital plane
View from above orbital plane
View from above satellite
View from above satellite

Ground track
Ground track

The orbit data is extracted from the following two-line orbital elements,

1 29649U 06056B   18147.18594699 -.00000000 +00000-0 +80202-5 0  9997
2 29649 049.5398 341.1903 5382902 016.9254 355.7309 05.00753496204992
Epoch (UTC): 27 May 2018 04:27:45
Eccentricity: 0.5382902
inclination: 49.5398°
perigee height: 285 km
apogee height: 15822 km
right ascension of ascending node: 341.1903°
argument of perigee: 16.9254°
revolutions per day: 5.00753496
mean anomaly at epoch: 355.7309°
orbit number at epoch: 20499

The dashed part of the orbit path shows where the satellite is in the earth's shadow,  

DLR